Find Starlink 32601

NORAD ID: 61973 Int'l Des: 2024-210 Owner: SPXS Country: US Constellation: starlink operational
LEOCIRCULAR

当前视图

正在加载3D地球...

About Starlink 32601

Starlink 32601 (NORAD 61973) is a starlink constellation satellite (v2 mini) launched Nov 14, 2024 by SPXS of US. It operates in LEO, CIRCULAR orbit with a mass of 730.00 kg.

即将过境

Passes for default location (London). Set your location on the main map for personalized predictions.

高度历史

Loading altitude history...

两行轨道根数

1 61973U 24210Q 26264.12722108 .00020325 00000-0 74628-3 0 9990
2 61973 42.9999 155.7437 0001018 270.0410 90.0325 15.27571409104775
Epoch: Sep 21, 2026 • Age: 12 hours

当前状态

高度 495.1 km
远地点 / 近地点 N/A
速度 7.62 km/s
星下点 -41.73°S, 148.79°W
发射日期 Nov 14, 2024
运行时间 1.8 years
类型 internet

技术详情

分类 Payload
质量 730.00 kg
干质量 700.00 kg
长度 0.30 m
跨度 29.00 m
形状 ? Box + pan
制造商 SPXS
平台类型 Starlink V2M
阶段状态 In Orbit
所有者/国家 SPXS/US

Most Searched